Aeroporto :
LOGIN :

Iscrizione | Disclaimer

   EN    FR    IT 

 










Sommario :    VFR   VFR Marginale   IFR   IFR Intensivo   IFR Molto Intensivo
Visibilità : 
Base nubi : 
>= 8 km
>= 3000ft
5 / 8 km
1000 / 3000 ft
1500m / 5 km
500 / 1000 ft
800 / 1500m
200 / 500 ft
< 800m
< 200 ft
Simboli :   Temporali  Nebbia  Neve Forte  Precipitazioni Forti  Vento > 20 kt
SIGMETs :   Varie  Temporali  Ghiacco  Turbolenza  Onda orograficha  Ceneri Vulcaniche






- Altitudine del aeroporto : 288 ft
- Codice IATA : BZZ


EGVN - RAF Brize Norton

ULTIMO METAR :
  • 200220Z 31007KT CAVOK 02/00 Q1032 NOSIG RMK BLU BLU

METARs OBSOLETI :
  • 200150Z 31009KT CAVOK 03/01 Q1032 NOSIG RMK BLU BLU
  • 200120Z 30006KT CAVOK 03/01 Q1032 NOSIG RMK BLU BLU
  • 200050Z 30006KT CAVOK 03/01 Q1032 NOSIG RMK BLU BLU
  • 200020Z 28005KT CAVOK 03/01 Q1032 NOSIG RMK BLU BLU
  • 192350Z 29005KT CAVOK 03/01 Q1031 NOSIG

TAF TAF EGVN
Valido dal 20 a 00 ore il 21 a 00 ore UTC


192240Z 2000/2024 30008KT 9999 FEW035



MetMap, La meteo Aeronautica in un colpo d'occhio ! - Copyright ORBIFLY Dicembre 2007 - Disclaimer

ORBIFLY MET'MAP TEAM :

Programmazione e sviluppo : Alexandra Zaïnal
Concezione : Baudouin d'Aumeries
Aiuto per la programmazione : Marc-Olivier Méhu
Supporto tecnico e logistico : Manuel Goepfert
Aiuto per la traduzione : Arnaldo La Scala

Contatto : metmap@orbifly.com




FONTI E CREDITI :

   NOAA